Time,TemperatureF,DewpointF,PressureIn,WindDirection,WindDirectionDegrees,WindSpeedMPH,WindSpeedGustMPH,Humidity,HourlyPrecipIn,Conditions,Clouds,dailyrainin,SoftwareType,DateUTC
2013-07-12 00:01:00,74.8,73.3,29.85,NNE,12,0.0,2.0,95,0.00,,---,0.00,VWS V14.01,2013-07-12 05:01:00,
2013-07-12 00:06:00,74.7,73.2,29.86,NNE,12,0.0,3.0,95,0.00,,---,0.00,VWS V14.01,2013-07-12 05:06:00,
2013-07-12 00:11:00,74.7,73.5,29.86,North,11,0.0,4.0,96,0.00,,---,0.00,VWS V14.01,2013-07-12 05:11:00,
2013-07-12 00:16:00,74.6,73.4,29.85,North,11,0.0,4.0,96,0.00,,---,0.00,VWS V14.01,2013-07-12 05:16:00,
2013-07-12 00:21:00,74.6,73.4,29.86,North,11,3.0,4.0,96,0.00,,---,0.00,VWS V14.01,2013-07-12 05:21:00,
2013-07-12 00:26:00,74.6,73.4,29.85,North,11,0.0,4.0,96,0.00,,---,0.00,VWS V14.01,2013-07-12 05:26:00,
2013-07-12 00:31:00,74.6,73.4,29.85,North,11,1.0,3.0,96,0.00,,---,0.00,VWS V14.01,2013-07-12 05:31:00,
2013-07-12 00:36:00,74.5,73.3,29.85,North,11,0.0,4.0,96,0.00,,---,0.00,VWS V14.01,2013-07-12 05:36:00,
2013-07-12 00:41:00,74.5,73.3,29.85,North,11,0.0,4.0,96,0.00,,---,0.00,VWS V14.01,2013-07-12 05:41:00,
2013-07-12 00:46:00,74.4,73.2,29.85,North,11,0.0,4.0,96,0.00,,---,0.00,VWS V14.01,2013-07-12 05:46:00,
2013-07-12 00:51:00,74.4,73.2,29.85,North,11,0.0,4.0,96,0.00,,---,0.00,VWS V14.01,2013-07-12 05:51:00,
2013-07-12 00:56:00,74.3,73.1,29.84,North,11,0.0,4.0,96,0.00,,---,0.00,VWS V14.01,2013-07-12 05:56:00,
2013-07-12 01:01:00,74.2,72.7,29.84,North,11,0.0,1.0,95,0.00,,---,0.00,VWS V14.01,2013-07-12 06:01:00,
2013-07-12 01:06:00,74.1,72.6,29.84,North,11,0.0,1.0,95,0.00,,---,0.00,VWS V14.01,2013-07-12 06:06:00,
2013-07-12 01:11:00,74.1,72.6,29.84,North,11,0.0,1.0,95,0.00,,---,0.00,VWS V14.01,2013-07-12 06:11:00,
2013-07-12 01:16:00,74.0,72.5,29.84,North,11,0.0,1.0,95,0.00,,---,0.00,VWS V14.01,2013-07-12 06:16:00,
2013-07-12 01:21:00,74.0,72.5,29.83,North,11,0.0,1.0,95,0.00,,---,0.00,VWS V14.01,2013-07-12 06:21:00,
2013-07-12 01:26:00,73.9,72.4,29.83,North,11,0.0,2.0,95,0.00,,---,0.00,VWS V14.01,2013-07-12 06:26:00,
2013-07-12 01:31:00,73.9,72.7,29.83,North,11,1.0,2.0,96,0.00,,---,0.00,VWS V14.01,2013-07-12 06:31:00,
2013-07-12 01:36:00,73.9,72.7,29.83,North,11,0.0,2.0,96,0.00,,---,0.00,VWS V14.01,2013-07-12 06:36:00,
2013-07-12 01:41:00,73.8,72.3,29.82,North,11,0.0,2.0,95,0.00,,---,0.00,VWS V14.01,2013-07-12 06:41:00,
2013-07-12 01:46:00,73.7,72.2,29.82,North,11,0.0,2.0,95,0.00,,---,0.00,VWS V14.01,2013-07-12 06:46:00,
2013-07-12 01:51:00,73.6,72.1,29.82,North,11,0.0,3.0,95,0.00,,---,0.00,VWS V14.01,2013-07-12 06:51:00,
2013-07-12 01:56:00,73.5,72.0,29.82,North,11,2.0,3.0,95,0.00,,---,0.00,VWS V14.01,2013-07-12 06:56:00,
2013-07-12 02:01:00,73.4,71.9,29.82,North,11,1.0,1.0,95,0.00,,---,0.00,VWS V14.01,2013-07-12 07:01:00,
2013-07-12 02:06:00,73.4,71.9,29.82,North,11,0.0,5.0,95,0.00,,---,0.00,VWS V14.01,2013-07-12 07:06:00,
2013-07-12 02:11:00,73.3,71.8,29.81,North,11,0.0,5.0,95,0.00,,---,0.00,VWS V14.01,2013-07-12 07:11:00,
2013-07-12 02:16:00,73.2,71.7,29.81,North,11,0.0,5.0,95,0.00,,---,0.00,VWS V14.01,2013-07-12 07:16:00,
2013-07-12 02:21:00,73.1,71.6,29.82,North,11,3.0,5.0,95,0.00,,---,0.00,VWS V14.01,2013-07-12 07:21:00,
2013-07-12 02:26:00,73.0,71.5,29.81,North,11,0.0,5.0,95,0.00,,---,0.00,VWS V14.01,2013-07-12 07:26:00,
2013-07-12 02:31:00,73.0,71.5,29.81,North,11,2.0,2.0,95,0.00,,---,0.00,VWS V14.01,2013-07-12 07:31:00,
2013-07-12 02:36:00,72.9,71.4,29.81,North,11,0.0,4.0,95,0.00,,---,0.00,VWS V14.01,2013-07-12 07:36:00,
2013-07-12 02:41:00,72.9,71.4,29.81,North,11,0.0,4.0,95,0.00,,---,0.00,VWS V14.01,2013-07-12 07:41:00,
2013-07-12 02:46:00,72.8,71.3,29.81,North,11,0.0,4.0,95,0.00,,---,0.00,VWS V14.01,2013-07-12 07:46:00,
2013-07-12 02:51:00,72.7,71.2,29.81,North,11,3.0,4.0,95,0.00,,---,0.00,VWS V14.01,2013-07-12 07:51:00,
2013-07-12 02:56:00,72.7,71.2,29.81,North,11,0.0,4.0,95,0.00,,---,0.00,VWS V14.01,2013-07-12 07:56:00,
2013-07-12 03:01:00,72.6,71.1,29.82,North,11,0.0,2.0,95,0.00,,---,0.00,VWS V14.01,2013-07-12 08:01:00,
2013-07-12 03:06:00,72.6,71.1,29.82,North,11,0.0,2.0,95,0.00,,---,0.00,VWS V14.01,2013-07-12 08:06:00,
2013-07-12 03:11:00,72.5,71.0,29.81,North,11,0.0,2.0,95,0.00,,---,0.00,VWS V14.01,2013-07-12 08:11:00,
2013-07-12 03:16:00,72.5,71.0,29.81,North,11,0.0,2.0,95,0.00,,---,0.00,VWS V14.01,2013-07-12 08:16:00,
2013-07-12 03:21:00,72.4,70.9,29.82,North,11,0.0,2.0,95,0.00,,---,0.00,VWS V14.01,2013-07-12 08:21:00,
2013-07-12 03:26:00,72.3,70.8,29.82,North,11,0.0,3.0,95,0.00,,---,0.00,VWS V14.01,2013-07-12 08:26:00,
2013-07-12 03:31:00,72.2,70.7,29.81,North,11,0.0,1.0,95,0.00,,---,0.00,VWS V14.01,2013-07-12 08:31:00,
2013-07-12 03:36:00,72.2,70.7,29.81,North,11,0.0,2.0,95,0.00,,---,0.00,VWS V14.01,2013-07-12 08:36:00,
2013-07-12 03:41:00,72.2,70.7,29.82,North,11,0.0,3.0,95,0.00,,---,0.00,VWS V14.01,2013-07-12 08:41:00,
2013-07-12 03:46:00,72.1,70.6,29.82,North,11,0.0,3.0,95,0.00,,---,0.00,VWS V14.01,2013-07-12 08:46:00,
2013-07-12 03:51:00,72.1,70.6,29.81,North,11,0.0,3.0,95,0.00,,---,0.00,VWS V14.01,2013-07-12 08:51:00,
2013-07-12 03:56:00,72.0,70.5,29.82,North,11,0.0,3.0,95,0.00,,---,0.00,VWS V14.01,2013-07-12 08:56:00,
2013-07-12 04:01:00,71.9,70.4,29.82,North,11,0.0,1.0,95,0.00,,---,0.00,VWS V14.01,2013-07-12 09:01:00,
2013-07-12 04:06:00,71.9,70.4,29.81,North,11,3.0,3.0,95,0.00,,---,0.00,VWS V14.01,2013-07-12 09:06:00,
2013-07-12 04:11:00,71.8,70.6,29.81,North,11,4.0,4.0,96,0.00,,---,0.00,VWS V14.01,2013-07-12 09:11:00,
2013-07-12 04:16:00,71.8,70.6,29.81,North,11,0.0,4.0,96,0.00,,---,0.00,VWS V14.01,2013-07-12 09:16:00,
2013-07-12 04:21:00,71.7,70.5,29.82,North,11,0.0,4.0,96,0.00,,---,0.00,VWS V14.01,2013-07-12 09:21:00,
2013-07-12 04:26:00,71.7,70.5,29.82,North,11,0.0,4.0,96,0.00,,---,0.00,VWS V14.01,2013-07-12 09:26:00,
2013-07-12 04:31:00,71.7,70.5,29.82,North,11,1.0,1.0,96,0.00,,---,0.00,VWS V14.01,2013-07-12 09:31:00,
2013-07-12 04:36:00,71.7,70.5,29.82,North,11,2.0,2.0,96,0.00,,---,0.00,VWS V14.01,2013-07-12 09:36:00,
2013-07-12 04:41:00,71.6,70.4,29.82,North,11,0.0,4.0,96,0.00,,---,0.00,VWS V14.01,2013-07-12 09:41:00,
2013-07-12 04:46:00,71.6,70.4,29.82,North,11,0.0,5.0,96,0.00,,---,0.00,VWS V14.01,2013-07-12 09:46:00,
2013-07-12 04:51:00,71.5,70.3,29.83,North,11,0.0,5.0,96,0.00,,---,0.00,VWS V14.01,2013-07-12 09:51:00,
2013-07-12 04:56:00,71.5,70.3,29.83,North,11,1.0,5.0,96,0.00,,---,0.00,VWS V14.01,2013-07-12 09:56:00,
2013-07-12 05:01:00,71.4,70.2,29.83,North,11,4.0,4.0,96,0.00,,---,0.00,VWS V14.01,2013-07-12 10:01:00,
2013-07-12 05:06:00,71.4,70.2,29.83,North,9,2.0,6.0,96,0.00,,---,0.00,VWS V14.01,2013-07-12 10:06:00,
2013-07-12 05:11:00,71.4,70.2,29.83,North,5,3.0,6.0,96,0.00,,---,0.00,VWS V14.01,2013-07-12 10:11:00,
2013-07-12 05:16:00,71.4,70.2,29.83,North,5,3.0,6.0,96,0.00,,---,0.00,VWS V14.01,2013-07-12 10:16:00,
2013-07-12 05:21:00,71.3,70.1,29.83,North,5,0.0,6.0,96,0.00,,---,0.00,VWS V14.01,2013-07-12 10:21:00,
2013-07-12 05:26:00,71.3,70.1,29.83,North,5,0.0,6.0,96,0.00,,---,0.00,VWS V14.01,2013-07-12 10:26:00,
2013-07-12 05:31:00,71.3,70.1,29.83,North,5,1.0,4.0,96,0.00,,---,0.00,VWS V14.01,2013-07-12 10:31:00,
2013-07-12 05:36:00,71.2,70.0,29.83,North,5,3.0,5.0,96,0.00,,---,0.00,VWS V14.01,2013-07-12 10:36:00,
2013-07-12 05:41:00,71.2,70.0,29.83,North,5,3.0,5.0,96,0.00,,---,0.00,VWS V14.01,2013-07-12 10:41:00,
2013-07-12 05:46:00,71.2,70.0,29.83,North,5,0.0,5.0,96,0.00,,---,0.00,VWS V14.01,2013-07-12 10:46:00,
2013-07-12 05:51:00,71.2,70.0,29.83,North,5,1.0,5.0,96,0.00,,---,0.00,VWS V14.01,2013-07-12 10:51:00,
2013-07-12 05:56:00,71.2,70.0,29.84,North,5,1.0,5.0,96,0.00,,---,0.00,VWS V14.01,2013-07-12 10:56:00,
2013-07-12 06:01:00,71.1,69.9,29.84,North,5,0.0,3.0,96,0.00,,---,0.00,VWS V14.01,2013-07-12 11:01:00,
2013-07-12 06:06:00,71.1,69.9,29.84,North,5,0.0,5.0,96,0.00,,---,0.00,VWS V14.01,2013-07-12 11:06:00,
2013-07-12 06:11:00,71.1,69.9,29.84,North,5,2.0,5.0,96,0.00,,---,0.00,VWS V14.01,2013-07-12 11:11:00,
2013-07-12 06:16:00,71.1,69.9,29.84,North,5,1.0,5.0,96,0.00,,---,0.00,VWS V14.01,2013-07-12 11:16:00,
2013-07-12 06:21:00,71.1,69.9,29.84,North,5,0.0,5.0,96,0.00,,---,0.00,VWS V14.01,2013-07-12 11:21:00,
2013-07-12 06:26:00,71.1,69.9,29.84,North,5,0.0,5.0,96,0.00,,---,0.00,VWS V14.01,2013-07-12 11:26:00,
2013-07-12 06:31:00,71.1,69.9,29.84,North,5,0.0,3.0,96,0.00,,---,0.00,VWS V14.01,2013-07-12 11:31:00,
2013-07-12 06:36:00,71.1,69.9,29.85,North,5,0.0,3.0,96,0.00,,---,0.00,VWS V14.01,2013-07-12 11:36:00,
2013-07-12 06:41:00,71.2,70.0,29.85,North,5,3.0,4.0,96,0.00,,---,0.00,VWS V14.01,2013-07-12 11:41:00,
2013-07-12 06:46:00,71.2,70.0,29.85,North,5,0.0,4.0,96,0.00,,---,0.00,VWS V14.01,2013-07-12 11:46:00,
2013-07-12 06:51:00,71.3,70.1,29.85,North,5,0.0,4.0,96,0.00,,---,0.00,VWS V14.01,2013-07-12 11:51:00,
2013-07-12 06:56:00,71.4,70.2,29.85,North,5,0.0,4.0,96,0.00,,---,0.00,VWS V14.01,2013-07-12 11:56:00,
2013-07-12 07:01:00,71.5,70.3,29.85,North,5,0.0,2.0,96,0.00,,---,0.00,VWS V14.01,2013-07-12 12:01:00,
2013-07-12 07:06:00,71.6,70.4,29.85,North,5,2.0,4.0,96,0.00,,---,0.00,VWS V14.01,2013-07-12 12:06:00,
2013-07-12 07:11:00,71.7,70.5,29.84,North,5,0.0,4.0,96,0.00,,---,0.00,VWS V14.01,2013-07-12 12:11:00,
2013-07-12 07:16:00,71.9,70.7,29.84,North,5,0.0,4.0,96,0.00,,---,0.00,VWS V14.01,2013-07-12 12:16:00,
2013-07-12 07:21:00,72.1,70.9,29.85,North,5,0.0,4.0,96,0.00,,---,0.00,VWS V14.01,2013-07-12 12:21:00,
2013-07-12 07:26:00,72.4,71.5,29.85,North,5,0.0,4.0,97,0.00,,---,0.00,VWS V14.01,2013-07-12 12:26:00,
2013-07-12 07:31:00,72.6,71.4,29.85,North,5,2.0,3.0,96,0.00,,---,0.00,VWS V14.01,2013-07-12 12:31:00,
2013-07-12 07:36:00,72.8,71.6,29.85,North,5,1.0,4.0,96,0.00,,---,0.00,VWS V14.01,2013-07-12 12:36:00,
2013-07-12 07:41:00,73.1,72.2,29.85,North,5,0.0,4.0,97,0.00,,---,0.00,VWS V14.01,2013-07-12 12:41:00,
2013-07-12 07:46:00,73.5,72.3,29.85,North,360,4.0,4.0,96,0.00,,---,0.00,VWS V14.01,2013-07-12 12:46:00,
2013-07-12 07:51:00,73.5,72.3,29.85,North,360,3.0,4.0,96,0.00,,---,0.00,VWS V14.01,2013-07-12 12:51:00,
2013-07-12 07:56:00,73.7,72.2,29.85,NNW,348,3.0,6.0,95,0.00,,---,0.00,VWS V14.01,2013-07-12 12:56:00,
2013-07-12 08:01:00,74.0,72.5,29.85,North,349,0.0,1.0,95,0.00,,---,0.00,VWS V14.01,2013-07-12 13:01:00,
2013-07-12 08:06:00,74.6,72.8,29.85,North,360,4.0,5.0,94,0.00,,---,0.00,VWS V14.01,2013-07-12 13:06:00,
2013-07-12 08:11:00,74.9,72.7,29.85,NNE,12,1.0,6.0,93,0.00,,---,0.00,VWS V14.01,2013-07-12 13:11:00,
2013-07-12 08:16:00,75.5,73.0,29.85,NNE,15,3.0,6.0,92,0.00,,---,0.00,VWS V14.01,2013-07-12 13:16:00,
2013-07-12 08:21:00,76.0,73.2,29.85,NNE,19,2.0,6.0,91,0.00,,---,0.00,VWS V14.01,2013-07-12 13:21:00,
2013-07-12 08:26:00,76.5,72.7,29.85,North,5,5.0,8.0,88,0.00,,---,0.00,VWS V14.01,2013-07-12 13:26:00,
2013-07-12 08:31:00,76.8,73.0,29.85,North,5,5.0,8.0,88,0.00,,---,0.00,VWS V14.01,2013-07-12 13:31:00,
2013-07-12 08:36:00,77.1,72.9,29.85,NNE,28,5.0,10.0,87,0.00,,---,0.00,VWS V14.01,2013-07-12 13:36:00,
2013-07-12 08:41:00,77.4,73.2,29.85,North,355,0.0,10.0,87,0.00,,---,0.00,VWS V14.01,2013-07-12 13:41:00,
2013-07-12 08:46:00,77.7,73.2,29.85,North,9,1.0,10.0,86,0.00,,---,0.00,VWS V14.01,2013-07-12 13:46:00,
2013-07-12 08:51:00,78.2,73.3,29.85,North,355,5.0,10.0,85,0.00,,---,0.00,VWS V14.01,2013-07-12 13:51:00,
2013-07-12 08:56:00,78.5,73.3,29.85,North,355,3.0,10.0,84,0.00,,---,0.00,VWS V14.01,2013-07-12 13:56:00,
2013-07-12 09:01:00,78.8,73.6,29.85,NNE,13,5.0,5.0,84,0.00,,---,0.00,VWS V14.01,2013-07-12 14:01:00,
2013-07-12 09:06:00,79.1,73.8,29.85,North,350,2.0,5.0,84,0.00,,---,0.00,VWS V14.01,2013-07-12 14:06:00,
2013-07-12 09:11:00,79.3,73.7,29.85,NNW,343,1.0,6.0,83,0.00,,---,0.00,VWS V14.01,2013-07-12 14:11:00,
2013-07-12 09:16:00,79.4,73.8,29.85,North,9,3.0,7.0,83,0.00,,---,0.00,VWS V14.01,2013-07-12 14:16:00,
2013-07-12 09:21:00,79.5,73.2,29.85,NNE,15,1.0,10.0,81,0.00,,---,0.00,VWS V14.01,2013-07-12 14:21:00,
2013-07-12 09:26:00,79.6,73.6,29.85,North,9,4.0,10.0,82,0.00,,---,0.00,VWS V14.01,2013-07-12 14:26:00,
2013-07-12 09:31:00,80.1,74.1,29.85,NNW,342,3.0,7.0,82,0.00,,---,0.00,VWS V14.01,2013-07-12 14:31:00,
2013-07-12 09:36:00,80.4,73.3,29.84,NNW,330,6.0,7.0,79,0.00,,---,0.00,VWS V14.01,2013-07-12 14:36:00,
2013-07-12 09:41:00,80.6,73.5,29.85,NNE,17,7.0,9.0,79,0.00,,---,0.00,VWS V14.01,2013-07-12 14:41:00,
2013-07-12 09:46:00,81.0,73.9,29.84,NNE,12,5.0,9.0,79,0.00,,---,0.00,VWS V14.01,2013-07-12 14:46:00,
2013-07-12 09:51:00,81.2,74.1,29.84,NE,44,3.0,9.0,79,0.00,,---,0.00,VWS V14.01,2013-07-12 14:51:00,
2013-07-12 09:56:00,81.5,74.0,29.84,North,5,3.0,9.0,78,0.00,,---,0.00,VWS V14.01,2013-07-12 14:56:00,
2013-07-12 10:01:00,81.9,74.0,29.84,NNE,17,3.0,5.0,77,0.00,,---,0.00,VWS V14.01,2013-07-12 15:01:00,
2013-07-12 10:06:00,82.3,74.0,29.84,NNW,348,5.0,7.0,76,0.00,,---,0.00,VWS V14.01,2013-07-12 15:06:00,
2013-07-12 10:11:00,82.5,74.2,29.84,NNE,26,4.0,7.0,76,0.00,,---,0.00,VWS V14.01,2013-07-12 15:11:00,
2013-07-12 10:16:00,82.8,74.1,29.84,North,5,4.0,8.0,75,0.00,,---,0.00,VWS V14.01,2013-07-12 15:16:00,
2013-07-12 10:21:00,83.1,74.8,29.84,NNE,13,0.0,8.0,76,0.00,,---,0.00,VWS V14.01,2013-07-12 15:21:00,
2013-07-12 10:26:00,83.3,74.2,29.83,NNW,338,5.0,9.0,74,0.00,,---,0.00,VWS V14.01,2013-07-12 15:26:00,
2013-07-12 10:31:00,83.3,74.6,29.83,NNW,333,6.0,7.0,75,0.00,,---,0.00,VWS V14.01,2013-07-12 15:31:00,
2013-07-12 10:36:00,83.4,75.1,29.83,North,360,3.0,7.0,76,0.00,,---,0.00,VWS V14.01,2013-07-12 15:36:00,
2013-07-12 10:40:00,83.7,75.3,29.83,NE,37,2.0,7.0,76,0.00,,---,0.00,VWS V14.01,2013-07-12 15:40:00,
2013-07-12 10:45:00,84.1,75.7,29.83,NNE,26,3.0,8.0,76,0.00,,---,0.00,VWS V14.01,2013-07-12 15:45:00,
2013-07-12 10:50:00,84.2,75.4,29.83,NE,34,5.0,10.0,75,0.00,,---,0.00,VWS V14.01,2013-07-12 15:50:00,
2013-07-12 10:55:00,84.4,75.2,29.83,NE,40,6.0,10.0,74,0.00,,---,0.00,VWS V14.01,2013-07-12 15:55:00,
2013-07-12 11:00:00,84.6,75.8,29.83,NE,46,5.0,6.0,75,0.00,,---,0.00,VWS V14.01,2013-07-12 16:00:00,
2013-07-12 11:05:00,84.7,75.5,29.83,NE,36,2.0,6.0,74,0.00,,---,0.00,VWS V14.01,2013-07-12 16:05:00,
2013-07-12 11:10:00,85.1,76.3,29.84,ENE,68,5.0,7.0,75,0.00,,---,0.00,VWS V14.01,2013-07-12 16:10:00,
2013-07-12 11:15:00,85.1,75.5,29.83,ENE,65,1.0,7.0,73,0.00,,---,0.00,VWS V14.01,2013-07-12 16:15:00,
2013-07-12 11:20:00,85.3,76.5,29.83,NNE,24,7.0,7.0,75,0.00,,---,0.00,VWS V14.01,2013-07-12 16:20:00,
2013-07-12 11:25:00,85.4,76.2,29.83,NE,41,2.0,7.0,74,0.00,,---,0.00,VWS V14.01,2013-07-12 16:25:00,
2013-07-12 11:30:00,85.5,75.9,29.83,NE,41,1.0,3.0,73,0.00,,---,0.00,VWS V14.01,2013-07-12 16:30:00,
2013-07-12 11:35:00,85.7,76.5,29.83,NE,36,3.0,9.0,74,0.00,,---,0.00,VWS V14.01,2013-07-12 16:35:00,
2013-07-12 11:40:00,85.9,77.1,29.83,NE,40,4.0,9.0,75,0.00,,---,0.00,VWS V14.01,2013-07-12 16:40:00,
2013-07-12 11:45:00,86.1,76.8,29.83,NE,49,0.0,9.0,74,0.00,,---,0.00,VWS V14.01,2013-07-12 16:45:00,
2013-07-12 11:50:00,86.3,76.2,29.83,NE,40,4.0,9.0,72,0.00,,---,0.00,VWS V14.01,2013-07-12 16:50:00,
2013-07-12 11:55:00,86.2,76.5,29.83,ENE,58,5.0,9.0,73,0.00,,---,0.00,VWS V14.01,2013-07-12 16:55:00,
2013-07-12 12:00:00,86.0,76.3,29.83,ENE,58,0.0,4.0,73,0.00,,---,0.00,VWS V14.01,2013-07-12 17:00:00,
2013-07-12 12:05:00,86.4,77.9,29.83,ENE,57,5.0,5.0,76,0.00,,---,0.00,VWS V14.01,2013-07-12 17:05:00,
2013-07-12 12:11:00,86.7,76.6,29.83,ENE,57,0.0,5.0,72,0.00,,---,0.00,VWS V14.01,2013-07-12 17:11:00,
2013-07-12 12:16:00,86.9,76.8,29.83,NE,40,0.0,5.0,72,0.00,,---,0.00,VWS V14.01,2013-07-12 17:16:00,
2013-07-12 12:21:00,87.1,76.6,29.83,NE,40,1.0,5.0,71,0.00,,---,0.00,VWS V14.01,2013-07-12 17:21:00,
2013-07-12 12:26:00,87.2,76.2,29.83,NE,48,0.0,5.0,70,0.00,,---,0.00,VWS V14.01,2013-07-12 17:26:00,
2013-07-12 12:31:00,88.0,76.1,29.82,NE,50,1.0,1.0,68,0.00,,---,0.00,VWS V14.01,2013-07-12 17:31:00,
2013-07-12 12:36:00,88.4,76.9,29.82,NE,52,0.0,1.0,69,0.00,,---,0.00,VWS V14.01,2013-07-12 17:36:00,
2013-07-12 12:41:00,88.3,77.3,29.82,NNE,12,0.0,3.0,70,0.00,,---,0.00,VWS V14.01,2013-07-12 17:41:00,
2013-07-12 12:46:00,87.9,77.3,29.83,North,360,1.0,3.0,71,0.00,,---,0.00,VWS V14.01,2013-07-12 17:46:00,
2013-07-12 12:51:00,87.4,77.7,29.82,NW,311,0.0,4.0,73,0.00,,---,0.00,VWS V14.01,2013-07-12 17:51:00,
2013-07-12 12:56:00,87.3,76.3,29.82,NW,307,1.0,5.0,70,0.00,,---,0.00,VWS V14.01,2013-07-12 17:56:00,
2013-07-12 13:01:00,87.6,76.6,29.82,NW,307,0.0,0.0,70,0.00,,---,0.00,VWS V14.01,2013-07-12 18:01:00,
2013-07-12 13:06:00,87.8,76.4,29.82,NNE,26,0.0,4.0,69,0.00,,---,0.00,VWS V14.01,2013-07-12 18:06:00,
2013-07-12 13:11:00,87.9,76.5,29.82,NE,42,0.0,4.0,69,0.00,,---,0.00,VWS V14.01,2013-07-12 18:11:00,
2013-07-12 13:17:00,88.1,77.5,29.82,South,190,4.0,7.0,71,0.00,,---,0.00,VWS V14.01,2013-07-12 18:17:00,
2013-07-12 13:22:00,87.5,76.9,29.82,SSW,202,0.0,7.0,71,0.00,,---,0.00,VWS V14.01,2013-07-12 18:22:00,
2013-07-12 13:27:00,86.9,77.6,29.82,SW,231,0.0,7.0,74,0.00,,---,0.00,VWS V14.01,2013-07-12 18:27:00,
2013-07-12 13:32:00,86.5,76.8,29.82,SSW,207,3.0,6.0,73,0.00,,---,0.00,VWS V14.01,2013-07-12 18:32:00,
2013-07-12 13:37:00,86.2,76.9,29.82,SSW,209,0.0,6.0,74,0.00,,---,0.00,VWS V14.01,2013-07-12 18:37:00,
2013-07-12 13:42:00,86.4,77.5,29.81,SSW,196,3.0,6.0,75,0.00,,---,0.00,VWS V14.01,2013-07-12 18:42:00,
2013-07-12 13:47:00,86.7,77.0,29.81,SW,234,6.0,11.0,73,0.00,,---,0.00,VWS V14.01,2013-07-12 18:47:00,
2013-07-12 13:52:00,86.6,76.9,29.81,SW,219,7.0,11.0,73,0.00,,---,0.00,VWS V14.01,2013-07-12 18:52:00,
2013-07-12 13:57:00,86.6,77.7,29.81,South,182,10.0,11.0,75,0.00,,---,0.00,VWS V14.01,2013-07-12 18:57:00,
2013-07-12 14:02:00,86.5,76.4,29.81,SSE,161,4.0,11.0,72,0.00,,---,0.00,VWS V14.01,2013-07-12 19:02:00,
2013-07-12 14:07:00,86.5,77.6,29.81,SW,215,2.0,11.0,75,0.00,,---,0.00,VWS V14.01,2013-07-12 19:07:00,
2013-07-12 14:12:00,86.4,76.7,29.81,SSW,205,2.0,11.0,73,0.00,,---,0.00,VWS V14.01,2013-07-12 19:12:00,
2013-07-12 14:17:00,86.3,76.6,29.81,SSW,202,6.0,14.0,73,0.00,,---,0.00,VWS V14.01,2013-07-12 19:17:00,
2013-07-12 14:22:00,86.4,77.1,29.81,South,190,3.0,14.0,74,0.00,,---,0.00,VWS V14.01,2013-07-12 19:22:00,
2013-07-12 14:27:00,86.5,76.8,29.82,South,175,5.0,14.0,73,0.00,,---,0.00,VWS V14.01,2013-07-12 19:27:00,
2013-07-12 14:32:00,86.5,76.4,29.81,South,184,5.0,9.0,72,0.00,,---,0.00,VWS V14.01,2013-07-12 19:32:00,
2013-07-12 14:37:00,86.4,77.9,29.81,SW,221,7.0,12.0,76,0.00,,---,0.00,VWS V14.01,2013-07-12 19:37:00,
2013-07-12 14:42:00,85.9,77.1,29.80,South,174,0.0,13.0,75,0.00,,---,0.00,VWS V14.01,2013-07-12 19:42:00,
2013-07-12 14:48:00,85.9,77.1,29.80,South,183,8.0,15.0,75,0.00,,---,0.00,VWS V14.01,2013-07-12 19:48:00,
2013-07-12 14:53:00,85.5,77.1,29.80,SSW,201,6.0,15.0,76,0.00,,---,0.00,VWS V14.01,2013-07-12 19:53:00,
2013-07-12 14:57:00,85.0,76.6,29.80,South,183,4.0,15.0,76,0.00,,---,0.00,VWS V14.01,2013-07-12 19:57:00,
2013-07-12 15:03:00,85.0,77.4,29.79,SW,227,7.0,12.0,78,0.00,,---,0.00,VWS V14.01,2013-07-12 20:03:00,
2013-07-12 15:08:00,85.2,76.4,29.79,SSW,204,6.0,13.0,75,0.00,,---,0.00,VWS V14.01,2013-07-12 20:08:00,
2013-07-12 15:13:00,85.2,76.4,29.80,SW,219,7.0,13.0,75,0.00,,---,0.00,VWS V14.01,2013-07-12 20:13:00,
2013-07-12 15:18:00,85.2,76.8,29.80,SW,217,2.0,13.0,76,0.00,,---,0.00,VWS V14.01,2013-07-12 20:18:00,
2013-07-12 15:23:00,85.0,76.2,29.80,SSE,153,6.0,13.0,75,0.00,,---,0.00,VWS V14.01,2013-07-12 20:23:00,
2013-07-12 15:28:00,85.0,76.6,29.78,SSW,202,16.0,16.0,76,0.00,,---,0.00,VWS V14.01,2013-07-12 20:28:00,
2013-07-12 15:33:00,85.0,75.8,29.79,WSW,244,3.0,16.0,74,0.00,,---,0.00,VWS V14.01,2013-07-12 20:33:00,
2013-07-12 15:39:00,84.9,76.5,29.80,SSW,207,2.0,16.0,76,0.00,,---,0.00,VWS V14.01,2013-07-12 20:39:00,
2013-07-12 15:44:00,85.2,76.4,29.79,SSE,166,5.0,16.0,75,0.00,,---,0.00,VWS V14.01,2013-07-12 20:44:00,
2013-07-12 15:49:00,85.3,75.7,29.79,South,189,8.0,16.0,73,0.00,,---,0.00,VWS V14.01,2013-07-12 20:49:00,
2013-07-12 15:54:00,85.3,76.5,29.80,SSW,202,0.0,16.0,75,0.00,,---,0.00,VWS V14.01,2013-07-12 20:54:00,
2013-07-12 15:59:00,85.4,76.2,29.79,SW,231,1.0,6.0,74,0.00,,---,0.00,VWS V14.01,2013-07-12 20:59:00,
2013-07-12 16:04:00,85.1,76.3,29.79,WSW,257,0.0,11.0,75,0.00,,---,0.00,VWS V14.01,2013-07-12 21:04:00,
2013-07-12 16:09:00,84.9,76.9,29.80,SSW,192,6.0,11.0,77,0.00,,---,0.00,VWS V14.01,2013-07-12 21:09:00,
2013-07-12 16:14:00,84.6,76.6,29.79,SW,218,6.0,12.0,77,0.00,,---,0.00,VWS V14.01,2013-07-12 21:14:00,
2013-07-12 16:20:00,84.1,75.7,29.82,SSW,211,0.0,12.0,76,0.00,,---,0.00,VWS V14.01,2013-07-12 21:20:00,
2013-07-12 16:25:00,83.6,75.2,29.80,WSW,254,0.0,12.0,76,0.00,,---,0.00,VWS V14.01,2013-07-12 21:25:00,
2013-07-12 16:30:00,83.2,75.6,29.80,WSW,246,0.0,4.0,78,0.00,,---,0.00,VWS V14.01,2013-07-12 21:30:00,
2013-07-12 16:35:00,82.8,75.2,29.80,WSW,246,0.0,4.0,78,0.00,,---,0.00,VWS V14.01,2013-07-12 21:35:00,
2013-07-12 16:40:00,82.5,75.3,29.81,North,355,4.0,5.0,79,0.00,,---,0.00,VWS V14.01,2013-07-12 21:40:00,
2013-07-12 16:46:00,81.0,74.6,29.80,North,355,0.0,15.0,81,0.01,,---,0.01,VWS V14.01,2013-07-12 21:46:00,
2013-07-12 16:51:00,79.2,72.9,29.80,North,355,3.0,15.0,81,0.01,,---,0.01,VWS V14.01,2013-07-12 21:51:00,
2013-07-12 16:56:00,77.2,71.3,29.81,North,355,0.0,15.0,82,0.01,,---,0.01,VWS V14.01,2013-07-12 21:56:00,
2013-07-12 17:01:00,76.5,71.7,29.81,North,355,0.0,3.0,85,0.01,,---,0.01,VWS V14.01,2013-07-12 22:01:00,
2013-07-12 17:06:00,75.6,71.1,29.80,North,360,2.0,5.0,86,0.01,,---,0.01,VWS V14.01,2013-07-12 22:06:00,
2013-07-12 17:11:00,75.0,70.5,29.80,North,5,0.0,5.0,86,0.01,,---,0.01,VWS V14.01,2013-07-12 22:11:00,
2013-07-12 17:16:00,74.3,69.8,29.79,NNW,344,2.0,5.0,86,0.01,,---,0.01,VWS V14.01,2013-07-12 22:16:00,
2013-07-12 17:21:00,74.0,70.2,29.78,WNW,295,0.0,5.0,88,0.01,,---,0.01,VWS V14.01,2013-07-12 22:21:00,
2013-07-12 17:26:00,73.8,70.4,29.79,WNW,295,0.0,5.0,89,0.01,,---,0.01,VWS V14.01,2013-07-12 22:26:00,
2013-07-12 17:31:00,73.6,70.5,29.79,North,11,0.0,3.0,90,0.01,,---,0.01,VWS V14.01,2013-07-12 22:31:00,
2013-07-12 17:36:00,73.5,70.4,29.78,North,11,0.0,3.0,90,0.01,,---,0.01,VWS V14.01,2013-07-12 22:36:00,
2013-07-12 17:41:00,73.5,70.7,29.78,North,11,0.0,3.0,91,0.01,,---,0.01,VWS V14.01,2013-07-12 22:41:00,
2013-07-12 17:47:00,73.5,70.7,29.79,North,11,0.0,3.0,91,0.01,,---,0.01,VWS V14.01,2013-07-12 22:47:00,
2013-07-12 17:52:00,73.6,71.1,29.79,North,11,0.0,3.0,92,0.01,,---,0.01,VWS V14.01,2013-07-12 22:52:00,
2013-07-12 17:57:00,73.6,71.1,29.79,North,11,0.0,3.0,92,0.01,,---,0.01,VWS V14.01,2013-07-12 22:57:00,
2013-07-12 18:02:00,73.5,71.0,29.79,North,11,0.0,0.0,92,0.00,,---,0.01,VWS V14.01,2013-07-12 23:02:00,
2013-07-12 18:07:00,73.5,71.0,29.80,North,11,3.0,4.0,92,0.00,,---,0.01,VWS V14.01,2013-07-12 23:07:00,
2013-07-12 18:12:00,73.3,70.8,29.80,North,11,0.0,4.0,92,0.00,,---,0.01,VWS V14.01,2013-07-12 23:12:00,
2013-07-12 18:17:00,73.3,70.8,29.81,North,11,0.0,4.0,92,0.00,,---,0.01,VWS V14.01,2013-07-12 23:17:00,
2013-07-12 18:22:00,73.3,70.8,29.81,North,355,3.0,6.0,92,0.00,,---,0.01,VWS V14.01,2013-07-12 23:22:00,
2013-07-12 18:27:00,73.3,71.2,29.80,NNW,346,2.0,6.0,93,0.00,,---,0.01,VWS V14.01,2013-07-12 23:27:00,
2013-07-12 18:32:00,73.3,71.2,29.81,NNW,342,0.0,1.0,93,0.00,,---,0.01,VWS V14.01,2013-07-12 23:32:00,
2013-07-12 18:38:00,73.4,71.3,29.81,NNW,342,0.0,1.0,93,0.00,,---,0.01,VWS V14.01,2013-07-12 23:38:00,
2013-07-12 18:43:00,73.5,71.7,29.81,NNW,342,0.0,1.0,94,0.00,,---,0.01,VWS V14.01,2013-07-12 23:43:00,
2013-07-12 18:48:00,73.5,71.7,29.81,NNW,342,0.0,1.0,94,0.00,,---,0.01,VWS V14.01,2013-07-12 23:48:00,
2013-07-12 18:53:00,73.5,71.7,29.81,NNW,342,0.0,2.0,94,0.00,,---,0.01,VWS V14.01,2013-07-12 23:53:00,
2013-07-12 18:58:00,73.6,71.8,29.80,NNW,342,0.0,2.0,94,0.00,,---,0.01,VWS V14.01,2013-07-12 23:58:00,
2013-07-12 19:03:00,73.6,71.8,29.80,NNW,342,0.0,0.0,94,0.00,,---,0.01,VWS V14.01,2013-07-13 00:03:00,
2013-07-12 19:08:00,73.7,71.9,29.79,NNW,342,0.0,0.0,94,0.00,,---,0.01,VWS V14.01,2013-07-13 00:08:00,
2013-07-12 19:13:00,73.8,72.0,29.80,NNW,342,0.0,2.0,94,0.00,,---,0.01,VWS V14.01,2013-07-13 00:13:00,
2013-07-12 19:18:00,74.0,72.2,29.79,NNW,342,0.0,2.0,94,0.00,,---,0.01,VWS V14.01,2013-07-13 00:18:00,
2013-07-12 19:23:00,74.2,72.4,29.80,NNW,342,0.0,2.0,94,0.00,,---,0.01,VWS V14.01,2013-07-13 00:23:00,
2013-07-12 19:28:00,74.4,72.6,29.79,NNW,342,0.0,0.0,94,0.00,,---,0.01,VWS V14.01,2013-07-13 00:28:00,
2013-07-12 19:33:00,74.6,72.8,29.79,NNW,342,0.0,0.0,94,0.00,,---,0.01,VWS V14.01,2013-07-13 00:33:00,
2013-07-12 19:38:00,74.6,72.8,29.79,NNW,342,3.0,3.0,94,0.00,,---,0.01,VWS V14.01,2013-07-13 00:38:00,
2013-07-12 19:44:00,74.6,72.8,29.79,NNW,341,0.0,5.0,94,0.00,,---,0.01,VWS V14.01,2013-07-13 00:44:00,
2013-07-12 19:49:00,74.6,72.8,29.79,NNW,340,0.0,5.0,94,0.00,,---,0.01,VWS V14.01,2013-07-13 00:49:00,
2013-07-12 19:54:00,74.6,72.8,29.79,NNW,340,0.0,5.0,94,0.00,,---,0.01,VWS V14.01,2013-07-13 00:54:00,
2013-07-12 19:59:00,74.6,72.8,29.79,NNW,340,1.0,1.0,94,0.00,,---,0.01,VWS V14.01,2013-07-13 00:59:00,
2013-07-12 20:04:00,74.6,72.8,29.79,NNW,340,0.0,3.0,94,0.00,,---,0.01,VWS V14.01,2013-07-13 01:04:00,
2013-07-12 20:09:00,74.5,72.7,29.79,NNW,340,0.0,4.0,94,0.00,,---,0.01,VWS V14.01,2013-07-13 01:09:00,
2013-07-12 20:14:00,74.4,72.6,29.80,NNW,340,0.0,4.0,94,0.00,,---,0.01,VWS V14.01,2013-07-13 01:14:00,
2013-07-12 20:19:00,74.4,72.6,29.81,NNW,342,4.0,4.0,94,0.00,,---,0.01,VWS V14.01,2013-07-13 01:19:00,
2013-07-12 20:24:00,74.3,72.5,29.81,NNW,342,0.0,4.0,94,0.00,,---,0.01,VWS V14.01,2013-07-13 01:24:00,
2013-07-12 20:29:00,74.1,72.3,29.80,NNW,342,0.0,0.0,94,0.00,,---,0.01,VWS V14.01,2013-07-13 01:29:00,
2013-07-12 20:34:00,74.0,72.2,29.81,NNW,342,1.0,4.0,94,0.00,,---,0.01,VWS V14.01,2013-07-13 01:34:00,
2013-07-12 20:39:00,74.0,72.2,29.81,North,355,3.0,5.0,94,0.00,,---,0.01,VWS V14.01,2013-07-13 01:39:00,
2013-07-12 20:44:00,73.9,72.1,29.81,North,355,4.0,5.0,94,0.00,,---,0.01,VWS V14.01,2013-07-13 01:44:00,
2013-07-12 20:49:00,73.8,72.0,29.81,North,360,1.0,5.0,94,0.00,,---,0.01,VWS V14.01,2013-07-13 01:49:00,
2013-07-12 20:54:00,73.7,71.9,29.81,North,360,1.0,5.0,94,0.00,,---,0.01,VWS V14.01,2013-07-13 01:54:00,
2013-07-12 20:59:00,73.6,71.8,29.81,North,360,0.0,4.0,94,0.00,,---,0.01,VWS V14.01,2013-07-13 01:59:00,
2013-07-12 21:04:00,73.5,71.4,29.81,North,360,2.0,5.0,93,0.00,,---,0.01,VWS V14.01,2013-07-13 02:04:00,
2013-07-12 21:09:00,73.4,71.3,29.81,North,5,0.0,5.0,93,0.00,,---,0.01,VWS V14.01,2013-07-13 02:09:00,
2013-07-12 21:14:00,73.3,71.2,29.81,North,5,0.0,5.0,93,0.00,,---,0.01,VWS V14.01,2013-07-13 02:14:00,
2013-07-12 21:19:00,73.2,71.1,29.81,North,5,0.0,5.0,93,0.00,,---,0.01,VWS V14.01,2013-07-13 02:19:00,
2013-07-12 21:24:00,73.2,71.1,29.81,North,5,0.0,5.0,93,0.00,,---,0.01,VWS V14.01,2013-07-13 02:24:00,
2013-07-12 21:29:00,73.1,71.0,29.81,North,9,0.0,2.0,93,0.00,,---,0.01,VWS V14.01,2013-07-13 02:29:00,
2013-07-12 21:34:00,73.0,70.9,29.81,North,5,0.0,2.0,93,0.00,,---,0.01,VWS V14.01,2013-07-13 02:34:00,
2013-07-12 21:39:00,73.0,70.9,29.81,North,5,0.0,2.0,93,0.00,,---,0.01,VWS V14.01,2013-07-13 02:39:00,
2013-07-12 21:44:00,72.9,70.8,29.81,North,5,0.0,2.0,93,0.00,,---,0.01,VWS V14.01,2013-07-13 02:44:00,
2013-07-12 21:50:00,72.8,70.7,29.81,North,5,0.0,2.0,93,0.00,,---,0.01,VWS V14.01,2013-07-13 02:50:00,
2013-07-12 21:55:00,72.7,70.6,29.81,North,5,0.0,2.0,93,0.00,,---,0.01,VWS V14.01,2013-07-13 02:55:00,
2013-07-12 22:00:00,72.7,70.6,29.81,North,5,0.0,2.0,93,0.00,,---,0.01,VWS V14.01,2013-07-13 03:00:00,
2013-07-12 22:05:00,72.6,70.5,29.81,North,5,0.0,2.0,93,0.00,,---,0.01,VWS V14.01,2013-07-13 03:05:00,
2013-07-12 22:10:00,72.5,70.4,29.81,North,5,0.0,2.0,93,0.00,,---,0.01,VWS V14.01,2013-07-13 03:10:00,
2013-07-12 22:15:00,72.5,70.4,29.81,North,5,0.0,2.0,93,0.00,,---,0.01,VWS V14.01,2013-07-13 03:15:00,
2013-07-12 22:20:00,72.4,70.3,29.82,North,5,0.0,2.0,93,0.00,,---,0.01,VWS V14.01,2013-07-13 03:20:00,
2013-07-12 22:25:00,72.4,70.3,29.82,North,5,0.0,2.0,93,0.00,,---,0.01,VWS V14.01,2013-07-13 03:25:00,
2013-07-12 22:30:00,72.3,70.2,29.82,North,5,0.0,0.0,93,0.00,,---,0.01,VWS V14.01,2013-07-13 03:30:00,
2013-07-12 22:36:00,72.2,70.4,29.83,North,5,0.0,0.0,94,0.00,,---,0.01,VWS V14.01,2013-07-13 03:36:00,
2013-07-12 22:41:00,72.2,70.4,29.82,North,5,0.0,0.0,94,0.00,,---,0.01,VWS V14.01,2013-07-13 03:41:00,
2013-07-12 22:46:00,72.2,70.4,29.83,North,5,0.0,0.0,94,0.00,,---,0.01,VWS V14.01,2013-07-13 03:46:00,
2013-07-12 22:51:00,72.1,70.3,29.83,North,5,0.0,0.0,94,0.00,,---,0.01,VWS V14.01,2013-07-13 03:51:00,
2013-07-12 22:56:00,72.0,70.2,29.83,North,5,0.0,0.0,94,0.00,,---,0.01,VWS V14.01,2013-07-13 03:56:00,
2013-07-12 23:01:00,72.0,70.2,29.83,North,5,0.0,0.0,94,0.00,,---,0.01,VWS V14.01,2013-07-13 04:01:00,
2013-07-12 23:02:00,72.0,70.2,29.83,North,5,0.0,0.0,94,0.00,,---,0.01,VWS V14.01,2013-07-13 04:02:00,
2013-07-12 23:07:00,71.9,70.1,29.83,North,5,1.0,2.0,94,0.00,,---,0.01,VWS V14.01,2013-07-13 04:07:00,
2013-07-12 23:12:00,71.9,70.1,29.83,North,5,0.0,2.0,94,0.00,,---,0.01,VWS V14.01,2013-07-13 04:12:00,
2013-07-12 23:17:00,71.8,70.0,29.83,North,5,0.0,2.0,94,0.00,,---,0.01,VWS V14.01,2013-07-13 04:17:00,
2013-07-12 23:22:00,71.8,70.0,29.83,North,5,0.0,2.0,94,0.00,,---,0.01,VWS V14.01,2013-07-13 04:22:00,
2013-07-12 23:27:00,71.7,69.9,29.83,North,5,0.0,3.0,94,0.00,,---,0.01,VWS V14.01,2013-07-13 04:27:00,
2013-07-12 23:32:00,71.7,69.9,29.83,North,5,0.0,0.0,94,0.00,,---,0.01,VWS V14.01,2013-07-13 04:32:00,
2013-07-12 23:37:00,71.6,69.8,29.82,North,5,0.0,2.0,94,0.00,,---,0.01,VWS V14.01,2013-07-13 04:37:00,
2013-07-12 23:42:00,71.6,69.8,29.82,North,5,0.0,4.0,94,0.00,,---,0.01,VWS V14.01,2013-07-13 04:42:00,
2013-07-12 23:47:00,71.6,69.8,29.83,North,5,0.0,4.0,94,0.00,,---,0.01,VWS V14.01,2013-07-13 04:47:00,
2013-07-12 23:52:00,71.5,69.7,29.82,North,5,0.0,4.0,94,0.00,,---,0.01,VWS V14.01,2013-07-13 04:52:00,
2013-07-12 23:57:00,71.5,69.7,29.82,North,5,0.0,4.0,94,0.00,,---,0.01,VWS V14.01,2013-07-13 04:57:00,